Terminal Aerodrome Forecast
Issued by NWS Charleston, WV

Current Version | Previous Version | Graphics & Text | Print | Product List | Glossary On
Versions: 1 2 3 4 5 6 7 8 9 10 11 12 13 14 15 16 17 18 19 20 21 22 23 24 25
000
FTUS41 KRLX 151130
TAFHTS
TAF
KHTS 151130Z 1512/1612 00000KT P6SM OVC040
     FM151600 26007KT P6SM SCT200
     FM151900 26008G14KT P6SM SCT040
     FM152100 26009G15KT P6SM SCT040
     FM160400 25008KT P6SM SCT200=

USA.gov is the U.S. government's official web portal to all federal, state and local government web resources and services.